Theta_e
326 326 326 326 325 326 326 326 327 327 326 322 329 331 333 330 335 336 341 340 338 339 337 336 335 334 335 333 335 333 331 336 331 333 336 334 331 323 321 311 306 307 312
325 326 325 325 325 325 325 326 328 328 328 325 330 333 333 334 334 336 340 339 339 336 336 336 330 331 334 333 333 334 336 332 332 336 335 331 324 321 312 308 312 316 320
325 327 325 324 324 324 324 324 327 328 329 329 331 333 333 335 334 338 339 339 338 335 334 332 333 335 333 333 336 338 331 332 335 334 328 324 322 314 311 313 321 324 321
326 327 325 325 323 324 324 325 326 328 330 327 332 332 331 334 331 338 339 338 336 333 334 332 334 334 333 334 336 334 333 336 333 327 323 323 316 312 314 319 323 321 320
327 327 325 326 325 324 324 325 327 329 330 330 332 332 334 334 333 339 339 336 334 333 332 331 331 332 331 330 337 335 337 334 327 323 325 318 313 314 311 322 322 321 321
328 328 326 325 327 324 325 326 328 329 328 330 332 332 333 333 334 337 338 336 334 333 330 333 332 334 331 331 332 336 336 328 323 325 319 317 314 312 315 323 321 321 321
326 327 327 326 326 326 325 327 327 328 331 330 332 332 334 337 334 336 337 336 333 333 333 329 330 329 331 332 331 337 331 324 325 323 319 315 313 312 316 319 319 317 316
327 328 327 326 326 327 327 328 327 329 330 331 332 335 334 336 337 337 336 334 332 330 331 333 332 330 330 330 331 334 327 327 326 321 318 317 313 316 316 316 313 314 313
328 328 328 327 326 328 329 328 328 329 332 331 333 334 335 336 335 335 334 332 331 329 328 327 327 327 329 329 332 331 331 329 324 322 319 314 314 315 313 313 312 313 315
328 328 328 327 327 328 326 327 329 327 330 331 332 333 333 334 334 336 334 333 333 330 329 326 329 329 330 331 332 331 329 328 326 323 317 314 315 314 312 312 312 316 316
329 328 328 328 326 326 327 329 328 329 330 331 334 335 334 332 332 333 334 333 332 330 329 329 328 328 330 331 331 329 328 327 325 321 315 313 313 315 314 314 314 313 317
327 328 328 327 327 327 329 330 328 329 331 333 334 333 333 333 332 331 332 332 332 332 330 329 329 330 330 329 329 330 327 325 323 320 315 315 318 318 316 315 313 314 318
328 327 328 329 331 329 331 331 330 329 331 334 332 332 332 333 332 331 330 330 329 329 331 331 328 327 327 328 329 329 325 323 323 318 317 316 316 316 314 314 314 316 317
329 328 329 329 329 330 330 331 329 331 331 331 331 331 331 331 331 330 330 328 329 327 327 328 328 328 328 328 329 328 323 323 319 317 316 315 315 314 312 313 314 314 313
328 328 329 330 331 330 329 329 330 331 332 330 331 327 330 331 331 330 329 329 328 330 327 328 329 329 328 329 330 327 324 321 315 312 313 313 311 311 312 312 312 311 310
329 329 329 330 331 330 330 332 332 331 330 328 330 330 329 330 330 329 330 329 329 328 328 328 328 330 331 330 329 327 326 320 314 310 310 310 309 310 311 311 311 309 307
329 330 328 331 331 331 330 332 332 331 330 329 328 329 329 329 329 329 330 329 329 329 329 329 329 330 330 331 329 326 327 325 314 309 308 309 309 311 312 311 310 309 306
330 330 331 330 332 332 331 331 331 329 329 329 327 329 329 329 329 329 329 328 329 328 329 329 329 330 328 329 327 326 324 323 321 314 310 311 312 313 313 312 310 308 307
329 331 331 332 330 330 330 330 332 331 330 328 329 329 329 329 329 329 329 328 329 328 327 328 329 328 326 323 320 322 325 324 323 319 319 317 315 314 313 312 310 308 306
326 328 331 332 330 330 331 332 331 328 328 328 329 328 328 328 329 329 328 328 328 329 326 326 327 325 323 324 321 325 326 325 324 322 321 319 317 316 314 313 310 306 304
328 330 329 330 331 331 331 331 330 330 331 329 329 328 328 328 328 328 328 327 327 328 327 326 326 325 326 326 326 326 324 323 322 321 321 318 316 315 313 311 308 306 305
329 326 326 324 325 329 332 331 331 331 330 330 331 328 328 328 329 328 328 325 325 325 325 325 325 325 323 325 323 324 325 325 326 324 321 319 318 315 314 314 315 313 312
325 324 323 324 323 324 327 330 332 330 330 330 329 329 326 322 321 323 321 320 323 323 327 329 323 324 324 324 324 324 324 325 327 325 324 321 321 320 319 318 317 316 315
325 325 322 322 325 325 325 326 328 327 324 322 322 321 322 318 320 322 322 322 323 323 324 324 328 328 327 327 329 326 327 329 329 326 325 325 323 323 322 321 319 315 313
325 325 324 321 319 324 325 327 328 327 326 324 325 319 325 323 320 320 321 322 319 319 319 319 320 322 324 325 325 326 326 326 325 323 320 322 323 317 321 322 317 312 310
329 327 325 324 319 316 320 322 325 326 325 324 323 324 324 323 321 321 322 322 322 321 315 314 312 312 312 312 312 311 311 313 313 313 314 313 311 310 309 310 310 307 307
Wind_Speed
13 9 9 11 13 16 18 19 20 22 19 22 19 20 22 20 17 18 16 20 22 24 35 34 30 26 25 26 27 26 27 26 25 23 21 18 16 14 12 10 10 11 12
12 10 10 11 14 14 19 18 18 19 18 21 19 17 22 11 19 17 21 23 24 30 32 31 39 28 27 26 28 29 28 28 24 21 17 16 14 12 11 11 11 13 15
13 11 10 10 14 16 16 20 19 14 13 18 18 19 20 17 16 16 23 25 35 33 33 37 35 33 27 27 30 29 28 26 23 19 17 15 13 11 11 12 13 13 14
10 12 9 9 9 15 18 20 19 15 14 18 18 17 17 15 14 18 27 29 29 32 32 33 29 30 31 27 26 27 28 25 22 19 16 14 12 11 12 13 14 13 13
9 11 10 7 6 12 20 21 19 17 18 19 15 21 15 14 15 21 29 30 30 31 32 28 27 28 29 30 27 26 27 24 20 17 15 12 12 12 12 13 13 13 12
9 10 11 9 8 11 17 18 18 18 21 19 15 13 13 14 15 25 31 31 31 30 32 25 30 28 29 26 26 25 24 22 20 17 14 12 11 11 13 12 12 12 11
9 9 10 10 11 11 15 16 20 18 16 18 16 12 11 9 15 23 30 31 32 30 35 35 34 35 29 28 29 25 23 21 19 17 14 12 11 11 13 12 11 10 9
8 8 9 12 12 9 10 14 18 12 12 18 12 10 4 6 14 26 30 33 34 35 31 32 34 32 26 23 23 22 20 20 18 16 14 11 11 13 11 10 9 8 7
6 8 9 10 10 10 10 10 11 9 11 12 14 6 3 3 7 20 28 31 32 33 32 32 33 32 26 26 24 21 20 18 16 15 13 13 13 12 11 9 9 6 5
5 6 10 11 12 11 10 12 14 9 18 13 9 11 9 11 3 7 24 29 29 31 33 30 24 25 27 26 21 20 18 16 15 14 12 11 12 11 11 8 6 6 3
4 9 11 11 9 5 11 11 13 20 21 21 10 16 20 18 16 9 10 18 26 26 27 26 26 24 25 23 17 16 16 16 15 11 9 10 11 10 10 9 7 5 5
5 9 11 11 7 7 9 9 12 18 20 19 18 21 21 11 12 12 9 16 18 23 27 25 26 26 26 22 16 15 14 13 10 9 10 11 11 11 10 8 6 5 6
10 12 10 9 7 8 10 10 13 16 21 25 25 25 28 23 24 25 21 13 9 13 14 25 28 28 20 16 11 9 13 12 11 11 12 12 12 12 9 8 7 6 7
11 12 9 9 8 10 14 15 17 19 23 20 24 27 29 31 28 29 19 22 9 7 12 11 22 20 19 16 13 14 15 13 11 12 12 12 13 12 10 10 9 10 10
13 12 10 12 12 14 16 20 20 22 22 22 21 25 29 31 31 32 34 24 13 7 4 8 7 15 15 17 17 15 14 13 11 12 12 13 13 12 13 13 13 13 15
13 13 14 16 18 18 21 22 21 22 23 22 22 24 24 26 28 29 28 21 15 18 4 12 11 19 17 16 13 14 8 11 11 13 14 15 14 15 16 15 17 16 17
12 12 16 17 18 17 22 20 20 22 22 22 22 22 25 25 28 31 28 21 25 11 14 14 17 20 17 16 13 15 12 9 9 14 17 17 19 18 18 19 19 20 19
14 13 15 16 19 20 20 19 20 19 22 21 21 22 27 24 26 26 24 21 26 14 21 17 20 20 16 12 9 14 10 15 14 15 19 20 20 22 21 22 22 22 23
17 14 14 14 16 20 19 19 18 18 19 21 20 23 24 22 29 29 29 22 15 14 19 20 18 16 14 11 13 15 15 14 9 20 17 19 22 25 25 25 26 28 28
17 19 15 12 15 17 14 19 19 20 20 21 22 19 19 21 27 29 28 20 13 17 20 20 17 18 18 19 15 15 14 17 12 16 19 22 24 26 29 30 30 32 30
18 16 16 11 16 19 20 21 21 22 21 23 23 19 21 24 23 25 25 17 12 19 21 21 20 17 20 19 19 17 17 16 20 23 25 25 25 25 25 28 30 32 33
17 19 17 14 16 20 19 21 25 24 24 24 24 23 25 25 18 20 17 15 16 20 21 20 20 21 20 21 17 20 19 20 12 20 28 29 26 29 26 27 27 26 26
14 21 16 18 18 20 20 21 21 24 24 24 22 24 23 23 19 24 19 19 11 17 10 12 19 18 20 19 18 18 19 16 17 15 15 23 22 28 27 27 27 28 30
11 17 16 18 19 19 20 19 18 20 21 22 22 20 20 18 18 20 18 13 9 9 7 6 8 7 7 8 9 13 14 13 15 19 19 22 27 26 27 24 22 20 27
11 11 17 14 15 18 16 19 18 17 18 16 18 19 17 18 17 17 15 14 13 12 12 10 7 7 8 8 10 10 8 10 11 16 10 11 13 16 19 17 15 18 20
13 11 13 14 13 16 16 14 16 15 15 13 13 14 16 15 18 17 16 15 14 10 7 7 7 8 8 9 10 12 13 13 10 10 11 20 19 20 10 20 23 30 37
Wind_Direction
274 272 270 256 233 220 212 211 206 215 217 217 217 216 212 221 195 180 175 171 173 173 165 161 162 169 170 167 165 160 156 151 150 149 149 144 147 147 137 133 123 116 111
268 262 265 260 247 229 214 209 208 212 222 209 208 212 220 212 192 173 169 172 170 161 160 157 157 165 170 164 164 160 156 153 148 153 149 152 149 144 137 126 122 119 114
263 258 261 268 241 234 211 212 217 213 211 196 208 215 230 190 182 161 167 159 160 160 160 154 158 167 159 163 161 159 157 153 153 153 156 155 150 145 134 126 124 122 117
259 257 252 261 255 214 201 208 215 209 198 197 192 211 195 185 181 168 168 160 166 166 161 161 165 158 158 162 160 155 157 157 153 156 155 155 147 142 133 130 132 126 119
264 250 250 234 227 192 193 199 201 196 192 196 195 196 177 173 175 173 163 158 161 162 164 162 164 155 160 161 164 157 162 160 153 153 159 152 148 143 130 138 134 125 124
258 244 245 217 207 185 189 192 207 193 189 189 186 199 175 177 181 173 153 153 159 163 158 160 156 162 161 164 162 159 161 154 156 156 157 160 148 139 136 142 133 131 134
239 240 238 207 193 194 192 188 185 187 185 184 160 157 160 160 181 171 154 147 154 153 154 148 154 155 163 168 170 163 157 154 161 159 162 159 148 146 146 145 140 134 141
214 224 208 181 178 189 186 183 172 174 176 165 164 138 131 92 135 151 144 146 146 152 153 163 159 159 162 173 170 159 156 160 163 163 164 157 154 150 148 147 144 156 156
183 193 184 174 171 170 175 168 152 162 144 160 151 142 126 151 145 143 137 139 144 149 158 157 155 150 168 174 175 156 159 159 163 169 166 163 154 155 154 159 166 167 168
178 188 180 170 173 171 161 145 138 141 133 151 127 121 102 113 143 133 127 134 137 143 146 152 152 163 163 172 164 158 162 166 166 169 162 155 158 163 168 173 175 184 202
130 179 171 176 180 193 169 151 152 157 150 167 138 118 105 103 87 106 114 116 120 137 147 147 153 160 165 159 159 164 169 170 172 163 163 167 174 173 182 185 191 204 217
118 161 171 185 181 175 177 163 147 147 146 128 134 134 122 114 126 112 122 119 124 133 146 153 156 161 162 163 161 168 177 175 171 171 179 177 177 190 198 200 208 217 220
96 140 159 177 178 177 172 160 145 144 139 125 122 120 111 121 116 117 118 116 112 114 129 150 150 154 157 152 147 181 187 183 182 183 177 182 189 204 206 212 221 222 221
91 128 130 148 174 174 163 158 145 128 122 116 113 122 122 127 135 130 126 125 108 99 79 119 153 158 159 164 191 188 189 191 189 186 191 194 203 208 222 225 221 235 236
103 104 121 130 140 148 146 144 136 123 112 117 114 127 125 136 139 138 136 129 136 139 109 133 145 175 178 185 190 190 200 190 187 197 203 208 216 222 231 230 231 237 242
118 104 112 119 132 139 138 128 128 125 121 125 122 127 129 136 140 142 140 144 158 134 122 150 143 158 164 175 182 172 202 198 202 208 214 219 227 232 238 239 238 244 251
115 105 111 117 126 129 139 129 133 139 129 127 127 127 129 144 144 144 147 147 153 140 128 150 151 166 166 179 181 176 208 221 224 220 223 227 233 239 244 243 247 251 250
110 107 118 116 132 135 140 141 138 149 139 139 141 139 135 146 149 158 159 168 165 150 146 144 160 168 175 174 194 182 192 211 234 226 232 236 241 247 250 251 251 253 256
105 114 126 129 135 145 144 139 147 152 149 148 141 139 138 147 151 155 159 168 187 182 163 141 142 168 165 181 191 196 211 222 255 237 240 244 249 251 252 254 255 255 254
105 106 109 124 133 148 143 139 145 146 142 153 146 131 141 157 161 168 172 186 174 170 162 152 157 163 177 192 191 200 217 227 235 243 247 251 253 256 255 254 255 256 256
117 104 108 107 117 125 137 134 139 151 146 143 138 144 149 156 167 177 192 198 189 173 166 164 170 173 181 187 202 210 224 237 240 238 245 251 261 265 263 261 258 261 263
128 118 111 110 104 114 126 132 138 139 140 142 148 155 161 172 189 180 195 197 178 167 183 177 172 176 192 200 207 218 229 230 234 247 239 245 256 261 267 271 273 274 282
117 118 114 120 115 113 119 127 131 135 141 150 152 149 148 150 152 159 165 172 170 171 158 109 175 192 193 203 212 221 227 244 254 267 249 250 248 259 268 272 276 284 288
118 122 122 127 127 124 126 127 126 129 129 138 141 145 150 144 151 155 157 164 154 170 150 137 157 165 178 198 220 241 249 262 271 273 272 269 278 262 266 264 272 285 281
148 147 142 146 143 142 134 135 134 132 134 140 131 144 147 155 152 148 160 167 174 189 203 208 222 230 236 246 246 246 254 280 289 307 344 305 310 330 310 288 289 295 299
172 177 158 159 168 168 166 160 152 152 147 148 155 156 164 171 164 167 176 175 176 193 195 221 246 255 263 274 282 277 276 276 302 326 346 4 347 352 336 316 308 311 318